Time,TemperatureF,DewpointF,PressureIn,WindDirection,WindDirectionDegrees,WindSpeedMPH,WindSpeedGustMPH,Humidity,HourlyPrecipIn,Conditions,Clouds,dailyrainin,SolarRadiationWatts/m^2,SoftwareType,DateUTC
2013-05-09 00:02:00,56.0,54.0,-100.00,North,359,2.0,3.0,94,0.00,,,0.52,38.000000,,2013-05-09 00:02:00,
2013-05-09 01:32:00,52.0,51.0,-100.00,NNW,348,1.0,3.0,96,-99.99,,,0.52,1.000000,,2013-05-09 01:32:00,
2013-05-09 01:42:00,52.0,51.0,-100.00,NNW,348,1.0,3.0,96,-99.99,,,0.52,1.000000,,2013-05-09 01:42:00,
2013-05-09 01:53:00,52.0,51.0,-100.00,NNW,348,1.0,3.0,96,-99.99,,,0.52,1.000000,,2013-05-09 01:53:00,
2013-05-09 02:02:00,52.0,51.0,-100.00,NNW,348,1.0,3.0,96,-99.99,,,0.52,1.000000,,2013-05-09 02:02:00,
2013-05-09 02:33:00,51.0,50.0,-100.00,North,8,1.0,2.0,96,0.00,,,0.52,0.000000,,2013-05-09 02:33:00,
2013-05-09 02:42:00,51.0,50.0,-100.00,North,8,1.0,2.0,96,0.00,,,0.52,0.000000,,2013-05-09 02:42:00,
2013-05-09 02:52:00,51.0,50.0,-100.00,North,8,1.0,2.0,96,0.00,,,0.52,0.000000,,2013-05-09 02:52:00,
2013-05-09 03:02:00,51.0,50.0,-100.00,North,8,1.0,2.0,96,0.00,,,0.52,0.000000,,2013-05-09 03:02:00,
2013-05-09 03:33:00,49.0,48.0,-100.00,North,349,1.0,3.0,96,0.00,,,0.52,0.000000,,2013-05-09 03:33:00,
2013-05-09 03:43:00,49.0,48.0,-100.00,North,349,1.0,3.0,96,0.00,,,0.52,0.000000,,2013-05-09 03:43:00,
2013-05-09 03:53:00,49.0,48.0,-100.00,North,349,1.0,3.0,96,0.00,,,0.52,0.000000,,2013-05-09 03:53:00,
2013-05-09 04:03:00,49.0,48.0,-100.00,North,349,1.0,3.0,96,0.00,,,0.52,0.000000,,2013-05-09 04:03:00,
2013-05-09 04:33:00,48.0,47.0,-100.00,West,271,1.0,3.0,96,0.00,,,0.52,0.000000,,2013-05-09 04:33:00,
2013-05-09 04:43:00,48.0,47.0,-100.00,West,271,1.0,3.0,96,0.00,,,0.52,0.000000,,2013-05-09 04:43:00,
2013-05-09 04:53:00,48.0,47.0,-100.00,West,271,1.0,3.0,96,0.00,,,0.52,0.000000,,2013-05-09 04:53:00,
2013-05-09 05:02:00,48.0,47.0,-100.00,West,271,1.0,3.0,96,0.00,,,0.52,0.000000,,2013-05-09 05:02:00,
2013-05-09 05:32:00,47.0,46.0,-100.00,West,274,1.0,3.0,96,0.00,,,0.52,0.000000,,2013-05-09 05:32:00,
2013-05-09 05:43:00,47.0,46.0,-100.00,West,274,1.0,3.0,96,0.00,,,0.52,0.000000,,2013-05-09 05:43:00,
2013-05-09 05:52:00,47.0,46.0,-100.00,West,274,1.0,3.0,96,0.00,,,0.52,0.000000,,2013-05-09 05:52:00,
2013-05-09 06:02:00,47.0,46.0,-100.00,West,274,1.0,3.0,96,0.00,,,0.52,0.000000,,2013-05-09 06:02:00,
2013-05-09 06:32:00,47.0,46.0,-100.00,NE,43,1.0,3.0,96,0.00,,,0.52,0.000000,,2013-05-09 06:32:00,
2013-05-09 06:42:00,47.0,46.0,-100.00,NE,43,1.0,3.0,96,0.00,,,0.52,0.000000,,2013-05-09 06:42:00,
2013-05-09 06:52:00,47.0,46.0,-100.00,NE,43,1.0,3.0,96,0.00,,,0.52,0.000000,,2013-05-09 06:52:00,
2013-05-09 07:01:00,47.0,46.0,-100.00,NE,43,1.0,3.0,96,0.00,,,0.52,0.000000,,2013-05-09 07:01:00,
2013-05-09 07:32:00,46.0,45.0,-100.00,WSW,255,1.0,3.0,96,0.00,,,0.52,0.000000,,2013-05-09 07:32:00,
2013-05-09 07:43:00,46.0,45.0,-100.00,WSW,255,1.0,3.0,96,0.00,,,0.52,0.000000,,2013-05-09 07:43:00,
2013-05-09 07:52:00,46.0,45.0,-100.00,WSW,255,1.0,3.0,96,0.00,,,0.52,0.000000,,2013-05-09 07:52:00,
2013-05-09 08:02:00,46.0,45.0,-100.00,WSW,255,1.0,3.0,96,0.00,,,0.52,0.000000,,2013-05-09 08:02:00,
2013-05-09 08:32:00,45.0,44.0,-100.00,West,262,2.0,3.0,96,0.00,,,0.52,0.000000,,2013-05-09 08:32:00,
2013-05-09 08:42:00,45.0,44.0,-100.00,West,262,2.0,3.0,96,0.00,,,0.52,0.000000,,2013-05-09 08:42:00,
2013-05-09 08:52:00,45.0,44.0,-100.00,West,262,2.0,3.0,96,0.00,,,0.52,0.000000,,2013-05-09 08:52:00,
2013-05-09 09:02:00,45.0,44.0,-100.00,West,262,2.0,3.0,96,0.00,,,0.52,0.000000,,2013-05-09 09:02:00,
2013-05-09 09:32:00,44.0,43.0,-100.00,West,266,2.0,3.0,96,0.00,,,0.52,0.000000,,2013-05-09 09:32:00,
2013-05-09 09:43:00,44.0,43.0,-100.00,West,266,2.0,3.0,96,0.00,,,0.52,0.000000,,2013-05-09 09:43:00,
2013-05-09 09:53:00,44.0,43.0,-100.00,West,266,2.0,3.0,96,0.00,,,0.52,0.000000,,2013-05-09 09:53:00,
2013-05-09 10:02:00,44.0,43.0,-100.00,West,266,2.0,3.0,96,0.00,,,0.52,0.000000,,2013-05-09 10:02:00,
2013-05-09 10:33:00,45.0,44.0,-100.00,NW,312,1.0,3.0,96,0.01,,,0.53,0.000000,,2013-05-09 10:33:00,
2013-05-09 10:42:00,45.0,44.0,-100.00,NW,312,1.0,3.0,96,0.01,,,0.53,0.000000,,2013-05-09 10:42:00,
2013-05-09 10:53:00,45.0,44.0,-100.00,NW,312,1.0,3.0,96,0.01,,,0.53,0.000000,,2013-05-09 10:53:00,
2013-05-09 11:02:00,45.0,44.0,-100.00,NW,312,1.0,3.0,96,0.01,,,0.53,0.000000,,2013-05-09 11:02:00,
2013-05-09 11:32:00,47.0,46.0,-100.00,ENE,68,1.0,3.0,97,0.00,,,0.52,8.000000,,2013-05-09 11:32:00,
2013-05-09 11:42:00,47.0,46.0,-100.00,ENE,68,1.0,3.0,97,0.00,,,0.52,8.000000,,2013-05-09 11:42:00,
2013-05-09 11:52:00,47.0,46.0,-100.00,ENE,68,1.0,3.0,97,0.00,,,0.52,8.000000,,2013-05-09 11:52:00,
2013-05-09 12:01:00,47.0,46.0,-100.00,ENE,68,1.0,3.0,97,0.00,,,0.52,8.000000,,2013-05-09 12:01:00,
2013-05-09 12:32:00,49.0,48.0,-100.00,SSE,167,1.0,2.0,97,0.00,,,-99.99,41.000000,,2013-05-09 12:32:00,
2013-05-09 12:43:00,49.0,48.0,-100.00,SSE,167,1.0,2.0,97,0.00,,,-99.99,41.000000,,2013-05-09 12:43:00,
2013-05-09 12:52:00,49.0,48.0,-100.00,SSE,167,1.0,2.0,97,0.00,,,-99.99,41.000000,,2013-05-09 12:52:00,
2013-05-09 13:01:00,49.0,48.0,-100.00,SSE,167,1.0,2.0,97,0.00,,,-99.99,41.000000,,2013-05-09 13:01:00,
2013-05-09 13:32:00,59.0,58.0,-100.00,West,259,1.0,3.0,96,0.00,,,-99.99,256.000000,,2013-05-09 13:32:00,
2013-05-09 13:42:00,59.0,58.0,-100.00,West,259,1.0,3.0,96,0.00,,,-99.99,256.000000,,2013-05-09 13:42:00,
2013-05-09 13:52:00,59.0,58.0,-100.00,West,259,1.0,3.0,96,0.00,,,-99.99,256.000000,,2013-05-09 13:52:00,
2013-05-09 14:02:00,59.0,58.0,-100.00,West,259,1.0,3.0,96,0.00,,,-99.99,256.000000,,2013-05-09 14:02:00,
2013-05-09 14:32:00,70.0,55.0,-100.00,WNW,300,3.0,8.0,60,0.00,,,0.36,526.000000,,2013-05-09 14:32:00,
2013-05-09 14:42:00,70.0,55.0,-100.00,WNW,300,3.0,8.0,60,0.00,,,0.36,526.000000,,2013-05-09 14:42:00,
2013-05-09 14:52:00,70.0,55.0,-100.00,WNW,300,3.0,8.0,60,0.00,,,0.36,526.000000,,2013-05-09 14:52:00,
2013-05-09 15:02:00,70.0,55.0,-100.00,WNW,300,3.0,8.0,60,0.00,,,0.36,526.000000,,2013-05-09 15:02:00,
2013-05-09 15:33:00,72.0,55.0,-100.00,WSW,252,3.0,9.0,56,0.00,,,0.22,802.000000,,2013-05-09 15:33:00,
2013-05-09 15:43:00,72.0,55.0,-100.00,WSW,252,3.0,9.0,56,0.00,,,0.22,802.000000,,2013-05-09 15:43:00,
2013-05-09 15:53:00,72.0,55.0,-100.00,WSW,252,3.0,9.0,56,0.00,,,0.22,802.000000,,2013-05-09 15:53:00,
2013-05-09 16:03:00,72.0,55.0,-100.00,WSW,252,3.0,9.0,56,0.00,,,0.22,802.000000,,2013-05-09 16:03:00,
2013-05-09 16:33:00,75.0,55.0,-100.00,West,262,3.0,7.0,50,0.00,,,0.13,921.000000,,2013-05-09 16:33:00,
2013-05-09 16:42:00,75.0,55.0,-100.00,West,262,3.0,7.0,50,0.00,,,0.13,921.000000,,2013-05-09 16:42:00,
2013-05-09 16:53:00,75.0,55.0,-100.00,West,262,3.0,7.0,50,0.00,,,0.13,921.000000,,2013-05-09 16:53:00,
2013-05-09 17:02:00,75.0,55.0,-100.00,West,262,3.0,7.0,50,0.00,,,0.13,921.000000,,2013-05-09 17:02:00,
2013-05-09 17:32:00,75.0,50.0,-100.00,SSW,199,4.0,9.0,42,0.00,,,0.11,734.000000,,2013-05-09 17:32:00,
2013-05-09 17:42:00,75.0,50.0,-100.00,SSW,199,4.0,9.0,42,0.00,,,0.11,734.000000,,2013-05-09 17:42:00,
2013-05-09 17:55:00,75.0,50.0,-100.00,SSW,199,4.0,9.0,42,0.00,,,0.11,734.000000,,2013-05-09 17:55:00,
2013-05-09 18:02:00,75.0,50.0,-100.00,SSW,199,4.0,9.0,42,0.00,,,0.11,734.000000,,2013-05-09 18:02:00,
2013-05-09 18:32:00,80.0,48.0,-100.00,SW,226,3.0,9.0,33,0.00,,,0.02,858.000000,,2013-05-09 18:32:00,
2013-05-09 18:42:00,80.0,48.0,-100.00,SW,226,3.0,9.0,33,0.00,,,0.02,858.000000,,2013-05-09 18:42:00,
2013-05-09 18:52:00,80.0,48.0,-100.00,SW,226,3.0,9.0,33,0.00,,,0.02,858.000000,,2013-05-09 18:52:00,
2013-05-09 19:01:00,80.0,48.0,-100.00,SW,226,3.0,9.0,33,0.00,,,0.02,858.000000,,2013-05-09 19:01:00,
2013-05-09 20:32:00,81.0,52.0,-100.00,WNW,293,4.0,10.0,37,-99.99,,,0.01,805.000000,,2013-05-09 20:32:00,
2013-05-09 20:42:00,81.0,52.0,-100.00,WNW,293,4.0,10.0,37,-99.99,,,0.01,805.000000,,2013-05-09 20:42:00,
2013-05-09 20:52:00,81.0,52.0,-100.00,WNW,293,4.0,10.0,37,-99.99,,,0.01,805.000000,,2013-05-09 20:52:00,
2013-05-09 21:02:00,81.0,52.0,-100.00,WNW,293,4.0,10.0,37,-99.99,,,0.01,805.000000,,2013-05-09 21:02:00,
2013-05-09 22:33:00,76.0,49.0,-100.00,NW,316,2.0,7.0,38,-99.99,,,0.01,162.000000,,2013-05-09 22:33:00,
2013-05-09 22:42:00,76.0,49.0,-100.00,NW,316,2.0,7.0,38,-99.99,,,0.01,162.000000,,2013-05-09 22:42:00,
2013-05-09 22:52:00,76.0,49.0,-100.00,NW,316,2.0,7.0,38,-99.99,,,0.01,162.000000,,2013-05-09 22:52:00,
2013-05-09 23:02:00,76.0,49.0,-100.00,NW,316,2.0,7.0,38,-99.99,,,0.01,162.000000,,2013-05-09 23:02:00,
2013-05-09 23:32:00,72.0,51.0,-100.00,NNW,330,1.0,5.0,48,0.00,,,0.01,45.000000,,2013-05-09 23:32:00,
2013-05-09 23:42:00,72.0,51.0,-100.00,NNW,330,1.0,5.0,48,0.00,,,0.01,45.000000,,2013-05-09 23:42:00,
2013-05-09 23:52:00,72.0,51.0,-100.00,NNW,330,1.0,5.0,48,0.00,,,0.01,45.000000,,2013-05-09 23:52:00,